Bryce, UT

2:42 PM MDT on August 28, 2016 (GMT -0600)
Bryce Canyon

Weather History for KBCE - December, 2012

Change the Weather History Date:

Saturday, December 15, 2012

  Actual Average Record
Temperature  
Mean Temperature 19 °F -  
Max Temperature 26 °F 37 °F 54 °F (1988)
Min Temperature 12 °F 11 °F -20 °F (2008)
Degree Days  
Heating Degree Days 46    
Moisture  
Dew Point 21 °F    
Average Humidity 93    
Maximum Humidity 100    
Minimum Humidity 85    
Precipitation  
Precipitation 0.18 in - - ()
Sea Level Pressure  
Sea Level Pressure 29.80 in    
Wind  
Wind Speed 6 mph (SSE)    
Max Wind Speed 12 mph    
Max Gust Speed -    
Visibility 3 miles    
Events Fog , Snow    
Averages and records for this station are not official NWS values.
T = Trace of Precipitation, MM = Missing Value Source: NWS Daily Summary

Daily Weather History Graph

Daily Weather History Graph

Search for Another Location

Airport or City:

Trip Planner

Search our weather history database for the weather conditions in past years. The results will help you decide how hot, cold, wet, or windy it might be!

Date:

Astronomy

Dec. 15, 2012 Rise Set
Actual Time 7:36 AM MST 5:11 PM MST
Civil Twilight 7:07 AM MST 5:40 PM MST
Nautical Twilight 6:34 AM MST 6:13 PM MST
Astronomical Twilight 6:02 AM MST 6:45 PM MST
Moon 9:34 AM MST (12/15) 8:17 PM MST (12/15)
Length of Visible Light 10h 32m
Length of Day
9h 34m
Waxing Crescent, 9% of the Moon is Illuminated
Dec 15
Waxing Crescent
Dec 19
First Quarter
Dec 28
Full
Jan 4
Last Quarter
Jan 11
New

Hourly Weather History & Observations

Time (MST) Temp. Windchill Dew Point Humidity Pressure Visibility Wind Dir Wind Speed Gust Speed Precip Events Conditions
12:53 AM 21.9 °F 17.2 °F 18.0 °F 85% 29.81 in 6.0 mi SSW 3.5 mph - 0.00 in Snow Light Snow
1:07 AM 21.2 °F 13.6 °F 19.4 °F 93% 29.86 in 2.0 mi SE 5.8 mph - 0.00 in Snow Light Snow
1:14 AM 21.2 °F 14.9 °F 19.4 °F 93% 29.85 in 1.0 mi South 4.6 mph - 0.00 in Snow Light Snow
1:19 AM 21.2 °F 13.6 °F 19.4 °F 93% 29.85 in 2.0 mi SW 5.8 mph - 0.00 in Snow Light Snow
1:27 AM 21.2 °F - 19.4 °F 93% 29.85 in 8.0 mi Calm Calm - 0.00 in Snow Light Snow
1:53 AM 19.9 °F 12.1 °F 18.0 °F 92% 29.81 in 10.0 mi ESE 5.8 mph - 0.00 in   Overcast
2:53 AM 19.9 °F - 18.0 °F 92% 29.80 in 6.0 mi Calm Calm - 0.00 in Snow Light Snow
3:10 AM 19.4 °F 14.3 °F 17.6 °F 93% 29.81 in 2.5 mi NE 3.5 mph - 0.00 in Snow Light Snow
3:17 AM 19.4 °F 14.3 °F 19.4 °F 100% 29.81 in 4.0 mi ENE 3.5 mph - 0.00 in Snow Light Snow
3:53 AM 19.9 °F - 18.0 °F 92% 29.75 in 3.0 mi Calm Calm - 0.00 in Snow Light Snow
4:12 AM 19.4 °F - 17.6 °F 93% 29.79 in 8.0 mi Calm Calm - 0.00 in Snow Light Snow
4:18 AM 19.4 °F - 17.6 °F 93% 29.79 in 5.0 mi Calm Calm - 0.00 in Snow Light Snow
4:28 AM 21.2 °F 14.9 °F 19.4 °F 93% 29.79 in 1.8 mi SE 4.6 mph - 0.00 in Snow Light Snow
4:51 AM 21.2 °F 16.4 °F 21.2 °F 100% 29.79 in 2.0 mi SSE 3.5 mph - 0.01 in Snow Light Snow
4:53 AM 21.9 °F 17.2 °F 21.0 °F 96% 29.75 in 2.5 mi SE 3.5 mph - 0.01 in Snow Light Snow
5:00 AM 21.2 °F - 21.2 °F 100% 29.79 in 5.0 mi Calm Calm - 0.00 in Snow Light Snow
5:05 AM 21.2 °F - 21.2 °F 100% 29.79 in 2.5 mi Calm Calm - 0.00 in Snow Light Snow
5:23 AM 21.2 °F 14.9 °F 21.2 °F 100% 29.79 in 1.2 mi SE 4.6 mph - 0.01 in Snow Light Snow
5:45 AM 21.2 °F 13.6 °F 21.2 °F 100% 29.79 in 1.2 mi SE 5.8 mph - 0.01 in Snow Light Snow
5:53 AM 21.9 °F 14.5 °F 21.0 °F 96% 29.75 in 1.8 mi SE 5.8 mph - 0.01 in Snow Light Snow
6:33 AM 21.2 °F 10.1 °F 21.2 °F 100% 29.80 in 2.0 mi SE 10.4 mph - 0.01 in Snow Light Snow
6:42 AM 21.2 °F 10.1 °F 21.2 °F 100% 29.80 in 1.8 mi SE 10.4 mph - 0.01 in Snow Light Snow
7:00 AM 21.2 °F 11.7 °F 21.2 °F 100% 29.80 in 3.0 mi SE 8.1 mph - 0.00 in Snow Light Snow
7:22 AM 23.0 °F 13.1 °F 21.2 °F 93% 29.80 in 1.8 mi SE 9.2 mph - 0.00 in Snow Light Snow
7:32 AM 23.0 °F 12.4 °F 21.2 °F 93% 29.80 in 0.2 mi SE 10.4 mph - 0.00 in Fog , Snow Light Snow
7:53 AM 23.0 °F 11.7 °F 23.0 °F 100% 29.76 in 0.2 mi SE 11.5 mph - 0.00 in Fog , Snow Light Snow
8:09 AM 23.0 °F 14.7 °F 23.0 °F 100% 29.81 in 1.0 mi SSE 6.9 mph - 0.00 in Snow Light Snow
8:17 AM 23.0 °F 15.8 °F 23.0 °F 100% 29.81 in 0.5 mi SE 5.8 mph - 0.01 in Fog , Snow Snow
8:33 AM 23.0 °F 14.7 °F 21.2 °F 93% 29.81 in 0.2 mi SE 6.9 mph - 0.02 in Fog , Snow Heavy Snow
8:41 AM 23.0 °F 13.9 °F 21.2 °F 93% 29.81 in 0.5 mi SE 8.1 mph - 0.02 in Fog , Snow Snow
8:53 AM 23.0 °F 13.9 °F 23.0 °F 100% 29.77 in 0.8 mi SSE 8.1 mph - 0.02 in Snow Light Snow
9:00 AM 23.0 °F 13.9 °F 23.0 °F 100% 29.81 in 1.8 mi SE 8.1 mph - 0.00 in Snow Light Snow
9:03 AM 23.0 °F 13.9 °F 23.0 °F 100% 29.81 in 3.0 mi SE 8.1 mph - 0.00 in Snow Light Snow
9:10 AM 23.0 °F 14.7 °F 23.0 °F 100% 29.81 in 2.0 mi SSE 6.9 mph - 0.00 in Snow Light Snow
9:13 AM 23.0 °F 15.8 °F 23.0 °F 100% 29.81 in 1.0 mi SSE 5.8 mph - 0.00 in Snow Light Snow
9:18 AM 23.0 °F 14.7 °F 23.0 °F 100% 29.81 in 0.8 mi SE 6.9 mph - 0.00 in Snow Light Snow
9:25 AM 23.0 °F 15.8 °F 23.0 °F 100% 29.80 in 2.0 mi SE 5.8 mph - 0.00 in Snow Light Snow
9:34 AM 24.8 °F 16.1 °F 23.0 °F 93% 29.81 in 0.8 mi SE 8.1 mph - 0.01 in Snow Light Snow
9:48 AM 24.8 °F 14.0 °F 23.0 °F 93% 29.81 in 1.0 mi SE 11.5 mph - 0.01 in Snow Light Snow
9:53 AM 24.1 °F 13.7 °F 23.0 °F 96% 29.79 in 1.5 mi SE 10.4 mph - 0.01 in Snow Light Snow
10:07 AM 24.8 °F 15.3 °F 23.0 °F 93% 29.82 in 2.0 mi SE 9.2 mph - 0.00 in Snow Light Snow
10:16 AM 24.8 °F 15.3 °F 23.0 °F 93% 29.82 in 1.5 mi SE 9.2 mph - 0.00 in Snow Light Snow
10:32 AM 24.8 °F 14.6 °F 23.0 °F 93% 29.82 in 1.5 mi SE 10.4 mph - 0.00 in Snow Light Snow
10:41 AM 24.8 °F 14.0 °F 23.0 °F 93% 29.82 in 1.2 mi SE 11.5 mph - 0.00 in Snow Light Snow
10:53 AM 24.1 °F 13.1 °F 23.0 °F 96% 29.81 in 1.5 mi SE 11.5 mph - 0.00 in Snow Light Snow
11:15 AM 24.8 °F 14.0 °F 23.0 °F 93% 29.81 in 0.8 mi SE 11.5 mph - 0.01 in Snow Light Snow
11:33 AM 24.8 °F 14.6 °F 24.8 °F 100% 29.81 in 1.0 mi SE 10.4 mph - 0.01 in Snow Light Snow
11:51 AM 24.8 °F 15.3 °F 23.0 °F 93% 29.80 in 3.0 mi SE 9.2 mph - 0.01 in Snow Light Snow
11:53 AM 24.1 °F 14.4 °F 23.0 °F 96% 29.78 in 5.0 mi ESE 9.2 mph - 0.01 in Snow Light Snow
12:15 PM 24.8 °F 14.0 °F 23.0 °F 93% 29.79 in 1.8 mi SE 11.5 mph - 0.00 in Snow Light Snow
12:19 PM 24.8 °F 14.0 °F 23.0 °F 93% 29.79 in 0.8 mi SE 11.5 mph - 0.01 in Snow Light Snow
12:26 PM 24.8 °F 15.3 °F 23.0 °F 93% 29.79 in 0.5 mi ESE 9.2 mph - 0.01 in Fog , Snow Snow
12:33 PM 24.8 °F 16.9 °F 23.0 °F 93% 29.79 in 0.2 mi ESE 6.9 mph - 0.03 in Fog , Snow Snow
12:53 PM 25.0 °F 18.1 °F 24.1 °F 96% 29.75 in 0.2 mi SE 5.8 mph - 0.08 in Fog , Snow Heavy Snow
1:00 PM 24.8 °F 20.5 °F 21.2 °F 86% 29.78 in 0.5 mi SE 3.5 mph - 0.00 in Fog , Snow Snow
1:05 PM 24.8 °F - 21.2 °F 86% 29.78 in 2.0 mi Calm Calm - 0.00 in Snow Light Snow
1:09 PM 24.8 °F - 21.2 °F 86% 29.78 in 6.0 mi Calm Calm - 0.00 in Snow Light Snow
1:30 PM 26.6 °F 19.1 °F 23.0 °F 86% 29.77 in 1.8 mi West 6.9 mph - 0.00 in Snow Light Snow
1:37 PM 24.8 °F 20.5 °F 21.2 °F 86% 29.77 in 3.0 mi SW 3.5 mph - 0.00 in Snow Light Snow
1:53 PM 25.0 °F 20.7 °F 21.0 °F 85% 29.75 in 9.0 mi South 3.5 mph - 0.00 in   Scattered Clouds
2:53 PM 24.1 °F 15.2 °F 21.9 °F 91% 29.76 in 10.0 mi SE 8.1 mph - N/A   Scattered Clouds
3:27 PM 24.8 °F 16.1 °F 21.2 °F 86% 29.78 in 8.0 mi WNW 8.1 mph - 0.00 in Snow Light Snow
3:37 PM 24.8 °F 15.3 °F 21.2 °F 86% 29.78 in 2.5 mi WNW 9.2 mph - 0.00 in Snow Light Snow
3:44 PM 24.8 °F 16.9 °F 21.2 °F 86% 29.78 in 1.0 mi NW 6.9 mph - 0.01 in Snow Light Snow
3:46 PM 24.8 °F 16.1 °F 21.2 °F 86% 29.78 in 0.8 mi NW 8.1 mph - 0.01 in Snow Light Snow
3:53 PM 24.1 °F 15.2 °F 21.9 °F 91% 29.78 in 0.8 mi NW 8.1 mph - 0.01 in Snow Light Snow
3:58 PM 24.8 °F 16.1 °F 21.2 °F 86% 29.79 in 0.2 mi WNW 8.1 mph - 0.00 in Fog , Snow Heavy Snow
4:11 PM 24.8 °F 15.3 °F 21.2 °F 86% 29.79 in 0.2 mi WNW 9.2 mph - 0.02 in Fog , Snow Heavy Snow
4:30 PM 23.0 °F 17.0 °F 21.2 °F 93% 29.78 in 0.8 mi WSW 4.6 mph - 0.03 in Snow Light Snow
4:34 PM 21.2 °F 12.6 °F 19.4 °F 93% 29.79 in 1.5 mi WSW 6.9 mph - 0.03 in Snow Light Snow
4:53 PM 21.0 °F 11.4 °F 19.9 °F 96% 29.79 in 5.0 mi WSW 8.1 mph - 0.03 in Snow Light Snow
5:17 PM 21.2 °F 11.7 °F 19.4 °F 93% 29.79 in 5.0 mi West 8.1 mph - 0.00 in Snow Light Snow
5:53 PM 21.9 °F 13.4 °F 19.0 °F 89% 29.80 in 9.0 mi WNW 6.9 mph - 0.00 in   Overcast
6:43 PM 23.0 °F 13.9 °F 19.4 °F 86% 29.80 in 10.0 mi West 8.1 mph - 0.00 in   Overcast
6:53 PM 21.0 °F 11.4 °F 19.0 °F 92% 29.80 in 10.0 mi WNW 8.1 mph - 0.00 in Snow Light Snow
7:53 PM 21.9 °F 11.7 °F 19.0 °F 89% 29.81 in 10.0 mi West 9.2 mph - 0.00 in   Overcast
8:53 PM 19.0 °F 12.3 °F 16.0 °F 88% 29.85 in 8.0 mi WNW 4.6 mph - 0.00 in Snow Light Snow
9:15 PM 12.2 °F 6.1 °F 10.4 °F 92% 29.84 in 10.0 mi West 3.5 mph - 0.00 in   Mostly Cloudy
9:53 PM 12.9 °F 5.2 °F 10.9 °F 92% 29.87 in 10.0 mi West 4.6 mph - 0.00 in   Overcast
10:53 PM 19.9 °F 11.1 °F 16.0 °F 85% 29.86 in 10.0 mi WNW 6.9 mph - N/A   Overcast
11:53 PM 19.9 °F 12.1 °F 16.0 °F 85% 29.86 in 10.0 mi WNW 5.8 mph - 0.00 in   Overcast